Lid_Strength_Index
1 1 1 2 3 4 5 4 3 1 2 2 2 2 2 2 2 2 2 2 3 3 2 3 3 2 3 2 2 1 2 1 2 1 0 -1 -1 -1 -2 -2 -2 -2 -2
1 1 1 1 2 3 3 3 2 1 1 2 1 2 2 2 3 3 3 3 3 4 3 3 3 3 2 1 2 0 -0 -0 1 2 0 0 -1 -1 -2 -1 -1 -1 -1
1 1 1 1 3 3 2 3 2 1 1 1 1 2 3 2 3 3 4 3 4 3 3 3 3 3 3 3 1 0 0 0 0 1 1 0 0 0 -0 -1 -1 -1 -1
1 1 1 1 1 2 2 3 2 2 2 1 2 2 2 3 3 3 4 4 3 4 3 3 3 3 2 2 -0 -0 -0 0 0 1 2 2 1 0 1 1 1 -0 -0
1 1 1 1 0 2 2 2 3 3 3 2 3 2 3 3 4 4 5 5 3 3 3 3 3 2 4 2 1 -0 -0 1 2 3 3 2 2 2 2 1 1 1 -0
1 2 1 1 1 1 2 2 3 3 2 3 3 3 3 3 7 6 5 5 4 3 3 3 3 4 4 4 3 4 3 2 2 2 2 3 1 1 1 1 1 2 3
1 1 1 1 1 1 2 4 1 3 3 3 2 2 1 1 7 7 6 5 5 4 3 3 3 4 3 2 3 4 4 3 3 1 1 1 2 1 0 1 1 1 2
1 1 1 1 1 1 2 2 2 4 4 2 2 1 1 2 7 7 6 4 4 4 3 2 2 3 3 2 2 2 1 1 0 0 -0 0 0 0 1 1 0 0 -0
1 1 1 1 1 1 1 1 1 3 4 3 4 3 3 3 7 8 7 4 4 3 2 2 2 3 3 5 2 1 1 1 2 2 2 3 4 4 3 2 2 3 3
1 1 0 0 1 1 1 1 1 3 4 4 4 4 4 4 7 8 7 3 5 4 2 2 6 3 7 7 2 1 2 1 0 0 1 3 3 1 3 1 2 3 3
0 0 0 0 0 1 1 0 1 1 4 4 4 4 4 4 6 8 8 4 4 3 3 2 1 6 7 7 6 1 1 1 1 1 2 2 2 2 2 2 1 2 3
0 0 0 0 0 0 1 1 1 1 3 5 5 5 4 4 6 8 8 9 6 4 3 2 1 7 7 7 6 5 5 5 2 2 3 3 3 3 2 2 2 1 1
0 0 0 -0 0 0 1 1 2 2 4 4 5 5 5 4 3 7 7 9 9 7 2 6 7 6 7 7 7 6 6 2 3 3 3 3 3 3 2 2 1 1 1
1 0 0 0 1 0 1 1 2 2 3 4 5 5 4 3 3 2 3 5 9 6 6 4 5 6 7 5 4 4 1 2 2 2 3 3 3 4 4 4 5 4 4
2 1 0 0 0 1 1 1 1 1 3 4 3 3 4 4 2 5 5 6 6 5 3 2 3 3 2 2 2 2 1 2 2 2 3 3 4 4 4 4 4 5 6
1 2 2 1 1 1 1 1 9 10 8 8 7 4 3 7 8 10 10 11 10 9 4 3 3 3 3 3 3 2 3 3 2 3 3 4 4 5 4 5 5 6 6
0 0 1 2 1 1 1 2 3 6 11 10 9 7 9 6 11 11 12 11 10 9 4 3 3 3 3 3 3 3 3 3 3 4 4 4 4 5 6 6 6 6 7
-0 3 0 1 1 1 1 2 2 4 5 6 10 8 11 12 12 12 13 10 6 7 3 3 3 3 3 3 3 3 4 4 4 4 5 5 5 6 6 7 7 7 7
0 0 0 0 0 1 1 1 2 3 4 6 8 8 11 12 13 13 12 4 3 3 2 3 3 3 3 3 3 4 4 4 5 5 5 6 6 7 7 7 7 10 9
0 2 3 0 0 1 1 1 2 4 6 6 6 6 8 9 9 9 6 3 3 3 2 3 3 3 3 3 4 4 5 5 5 6 7 7 7 7 7 7 7 8 7
0 0 4 0 1 -0 2 2 4 6 7 7 7 7 12 7 6 6 4 3 2 3 3 3 3 3 3 3 4 5 5 6 7 7 7 7 7 8 8 8 8 8 8
0 0 0 1 1 1 1 3 5 6 7 7 6 8 13 7 5 5 3 2 3 3 3 3 4 3 3 5 5 5 6 7 7 7 7 8 9 9 10 9 9 8 9
0 0 0 1 0 3 3 4 5 5 6 6 6 7 8 6 6 4 3 3 2 2 3 3 3 3 4 5 5 6 7 6 6 7 8 9 10 10 10 10 9 9 9
0 0 1 1 2 2 1 4 5 7 5 6 7 7 6 6 4 4 3 3 2 3 3 3 3 5 5 5 5 5 6 7 7 7 8 10 10 10 10 9 9 9 8
0 1 0 1 2 2 2 4 4 4 5 6 6 6 6 4 4 3 3 3 3 3 3 3 4 5 5 5 5 6 11 13 9 12 9 9 9 8 9 8 8 7 8
0 0 1 1 1 1 2 3 3 4 5 5 6 5 3 4 3 3 4 4 3 3 3 3 5 5 5 5 8 12 13 13 11 13 10 8 7 7 7 7 7 7 7